GW4409 Weather Reports


time (UTC)temp
F
wind
direction
speed
knots
gust
knots
rain 1hr
in
rain 24hr
in
rain mn
in
humidity
%
barometer
mb
20260506201404 65 255 2.6 6.1 0.00 0.29 0.25 85 1007.3
20260506200906 65 207 2.6 7.0 0.00 0.29 0.25 85 1007.2
20260506200405 65 224 2.6 7.8 0.00 0.29 0.25 86 1007.3
20260506195904 65 251 2.6 6.1 0.01 0.29 0.25 86 1007.3
20260506195404 64 254 2.6 6.1 0.01 0.29 0.25 86 1007.5
20260506194904 64 227 1.7 2.6 0.01 0.29 0.25 86 1007.5
20260506194404 64 111 1.7 7.0 0.01 0.29 0.25 86 1007.5
20260506192405 64 186 2.6 10.4 0.01 0.29 0.25 88 1007.7
20260506191904 63 221 1.7 7.0 0.01 0.29 0.25 88 1007.8
20260506191404 63 198 2.6 7.0 0.01 0.29 0.25 88 1007.9
20260506190905 63 168 3.5 7.0 0.01 0.29 0.25 88 1007.9
20260506190404 63 218 2.6 7.0 0.01 0.29 0.25 88 1007.9
20260506185904 63 192 2.6 7.0 0.00 0.29 0.24 89 1007.9
20260506185405 63 256 4.3 7.0 0.00 0.29 0.24 90 1007.9
20260506184405 63 199 2.6 7.0 0.00 0.29 0.24 91 1008.0
20260506183905 63 220 1.7 6.1 0.00 0.29 0.24 91 1008.0
20260506183404 63 257 2.6 7.0 0.00 0.29 0.24 90 1008.1
20260506182905 63 216 2.6 8.7 0.00 0.29 0.24 88 1008.1
20260506182404 63 199 2.6 8.7 0.01 0.29 0.25 88 1008.0
20260506181904 63 254 4.3 7.8 0.01 0.29 0.25 88 1008.0
20260506181404 63 218 2.6 7.8 0.01 0.29 0.25 89 1008.0
20260506180904 63 186 2.6 7.8 0.01 0.29 0.25 89 1008.1
20260506175905 63 193 3.5 7.0 0.03 0.29 0.26 89 1008.2
20260506175405 63 226 2.6 7.0 0.03 0.29 0.26 90 1008.4
20260506174904 63 239 1.7 5.2 0.04 0.29 0.26 91 1008.4
20260506174404 63 193 2.6 6.1 0.04 0.29 0.26 90 1008.3
20260506173904 63 235 4.3 7.8 0.04 0.29 0.26 90 1008.3
20260506173404 63 195 2.6 10.4 0.05 0.28 0.25 90 1008.5
20260506172904 62 201 4.3 7.8 0.06 0.28 0.25 91 1008.5
20260506172404 62 208 2.6 7.0 0.07 0.28 0.25 92 1008.6
20260506171404 63 202 2.6 7.8 0.07 0.27 0.24 92 1008.5
20260506170904 63 250 2.6 8.7 0.08 0.27 0.24 93 1008.4
20260506170404 63 216 3.5 8.7 0.08 0.25 0.22 93 1008.3
20260506165404 63 241 1.7 7.8 0.09 0.25 0.22 94 1008.4
20260506163405 62 197 2.6 7.0 0.10 0.23 0.20 95 1008.4
20260506162904 62 180 1.7 6.1 0.11 0.23 0.20 94 1008.7
20260506162404 62 207 0.9 6.1 0.12 0.21 0.18 95 1009.1
20260506161908 62 207 1.7 5.2 0.13 0.20 0.18 94 1009.3
20260506161404 62 222 2.6 7.0 0.14 0.20 0.17 94 1009.4
20260506160903 62 220 1.7 5.2 0.13 0.18 0.16 94 1009.6
20260506160405 62 162 2.6 6.1 0.13 0.17 0.15 94 1009.7
20260506155404 62 184 0.9 4.3 0.12 0.15 0.14 93 1009.8
20260506154405 62 216 1.7 6.1 0.11 0.13 0.12 90 1009.8
20260506153905 63 204 1.7 6.1 0.11 0.12 0.11 89 1009.7
20260506153403 63 220 2.6 7.0 0.10 0.10 0.10 87 1009.9
20260506152405 64 177 2.6 7.8 0.06 0.06 0.06 84 1009.8
20260506151904 64 254 2.6 6.1 0.05 0.05 0.05 81 1009.8
20260506150904 65 215 1.7 7.0 0.03 0.03 0.03 81 1009.5
20260506150403 65 209 4.3 7.0 0.02 0.02 0.02 80 1009.5
20260506145904 65 206 2.6 7.0 0.02 0.02 0.02 80 1009.6
20260506145403 65 231 1.7 5.2 0.02 0.02 0.02 80 1009.5
20260506144904 66 212 2.6 6.1 0.01 0.01 0.01 78 1009.7
20260506144404 66 224 2.6 7.0 0.01 0.01 0.01 76 1009.8
20260506143404 67 225 2.6 7.8 0.00 0.00 0.00 72 1009.8
20260506142906 67 241 1.7 8.7 0.00 0.00 0.00 71 1009.8
20260506142404 67 230 2.6 7.0 0.00 0.00 0.00 71 1009.8
20260506141903 67 240 4.3 7.0 0.00 0.00 0.00 71 1009.8
20260506141405 67 189 4.3 11.3 0.00 0.00 0.00 70 1009.7
20260506140904 68 204 3.5 11.3 0.00 0.00 0.00 70 1009.7
20260506140404 68 196 4.3 11.3 0.00 0.00 0.00 70 1009.5
20260506135904 68 181 4.3 7.8 0.00 0.00 0.00 70 1009.4
20260506135404 67 225 1.7 6.1 0.00 0.00 0.00 71 1009.4
20260506134904 67 223 3.5 11.3 0.00 0.00 0.00 72 1009.6
20260506134405 67 211 2.6 10.4 0.00 0.00 0.00 72 1009.6
20260506133904 67 274 2.6 6.1 0.00 0.00 0.00 72 1009.6
20260506133405 67 196 3.5 7.8 0.00 0.00 0.00 73 1009.6
20260506132904 67 193 4.3 7.8 0.00 0.00 0.00 72 1009.7
20260506132403 67 224 2.6 7.0 0.00 0.00 0.00 73 1009.6
20260506131905 67 203 2.6 8.7 0.00 0.00 0.00 73 1009.7
20260506131403 67 188 3.5 8.7 0.00 0.00 0.00 73 1009.7
20260506130404 67 223 3.5 7.0 0.00 0.00 0.00 73 1009.9
20260506125904 67 185 4.3 8.7 0.00 0.00 0.00 73 1009.8
20260506125403 67 203 4.3 8.7 0.00 0.00 0.00 72 1009.8
20260506124905 66 208 2.6 10.4 0.00 0.00 0.00 73 1009.7
20260506124403 66 195 3.5 10.4 0.00 0.00 0.00 74 1009.7
20260506123904 66 203 4.3 7.0 0.00 0.00 0.00 74 1009.9
20260506123403 65 227 2.6 7.0 0.00 0.00 0.00 75 1009.8
20260506122908 65 198 4.3 7.8 0.00 0.00 0.00 75 1009.7
20260506122404 65 213 2.6 8.7 0.00 0.00 0.00 75 1009.6
20260506121903 65 178 0.9 8.7 0.00 0.00 0.00 75 1009.6
20260506121404 65 205 4.3 7.0 0.00 0.00 0.00 76 1009.6
20260506120903 65 187 3.5 10.4 0.00 0.00 0.00 76 1009.7
20260506120405 65 193 2.6 10.4 0.00 0.00 0.00 76 1009.7
20260506115905 65 204 2.6 8.7 0.00 0.00 0.00 76 1009.8
20260506115404 65 207 2.6 7.0 0.00 0.00 0.00 77 1009.7
20260506114904 65 215 2.6 7.0 0.00 0.00 0.00 77 1009.7
20260506114405 65 174 2.6 11.3 0.00 0.00 0.00 77 1009.7
20260506113904 65 172 4.3 8.7 0.00 0.00 0.00 77 1009.7
20260506113404 65 183 2.6 7.0 0.00 0.00 0.00 77 1009.6
20260506112905 65 174 2.6 7.0 0.00 0.00 0.00 77 1009.8
20260506110903 65 195 4.3 10.4 0.00 0.00 0.00 77 1009.7
20260506105904 65 186 4.3 8.7 0.00 0.00 0.00 78 1009.8
20260506104903 65 180 2.6 10.4 0.00 0.00 0.00 78 1009.7
20260506104404 65 190 2.6 8.7 0.00 0.00 0.00 78 1009.6
20260506103903 64 163 3.5 7.0 0.00 0.00 0.00 78 1009.5
20260506103405 64 182 5.2 11.3 0.00 0.00 0.00 78 1009.5
20260506102905 64 196 2.6 7.0 0.00 0.00 0.00 78 1009.5
20260506102405 64 178 4.3 11.3 0.00 0.00 0.00 78 1009.4
20260506101905 64 185 2.6 8.7 0.00 0.00 0.00 79 1009.4
20260506101404 64 192 2.6 8.7 0.00 0.00 0.00 79 1009.4
20260506100903 64 178 3.5 8.7 0.00 0.00 0.00 78 1009.5
20260506100404 64 181 1.7 8.7 0.00 0.00 0.00 79 1009.5
20260506095904 64 175 5.2 8.7 0.00 0.00 0.00 79 1009.6
20260506095404 64 173 3.5 8.7 0.00 0.00 0.00 79 1009.5
20260506094404 65 179 2.6 8.7 0.00 0.00 0.00 78 1009.3
20260506093905 65 190 2.6 7.0 0.00 0.00 0.00 78 1009.3
20260506093405 65 158 3.5 10.4 0.00 0.00 0.00 78 1009.3
20260506092904 65 177 4.3 10.4 0.00 0.00 0.00 78 1009.3
20260506092403 65 192 2.6 6.1 0.00 0.00 0.00 78 1009.4
20260506091904 65 220 1.7 7.0 0.00 0.00 0.00 78 1009.4
20260506090904 65 173 2.6 7.8 0.00 0.00 0.00 78 1009.4
20260506090403 65 179 2.6 8.7 0.00 0.00 0.00 78 1009.5
20260506085903 65 179 2.6 6.1 0.00 0.00 0.00 78 1009.6
20260506085404 65 214 2.6 7.0 0.00 0.00 0.00 78 1009.6
20260506084903 65 189 1.7 5.2 0.00 0.00 0.00 78 1009.6
20260506084403 65 174 2.6 6.1 0.00 0.00 0.00 78 1009.5
20260506083909 65 183 4.3 8.7 0.00 0.00 0.00 78 1009.6
20260506083405 65 183 1.7 5.2 0.00 0.00 0.00 78 1009.6
20260506082905 65 192 2.6 7.8 0.00 0.00 0.00 78 1009.6
20260506081906 65 196 2.6 7.8 0.00 0.00 0.00 78 1009.6
20260506081405 65 188 4.3 7.8 0.00 0.00 0.00 78 1009.6
20260506080906 65 182 1.7 7.0 0.00 0.00 0.00 78 1009.7
20260506080407 65 185 2.6 7.0 0.00 0.00 0.00 78 1009.7
20260506073405 66 243 2.6 7.8 0.00 0.00 0.00 76 1009.7
20260506072906 66 176 2.6 7.0 0.00 0.00 0.00 76 1009.7
20260506071405 66 181 4.3 7.8 0.00 0.00 0.00 76 1009.8
20260506070906 66 189 2.6 7.8 0.00 0.00 0.00 76 1009.8
20260506070406 66 187 2.6 7.0 0.00 0.00 0.00 76 1009.8
20260506062405 67 184 2.6 8.7 0.00 0.00 0.00 74 1009.9
20260506061905 67 208 2.6 7.0 0.00 0.00 0.00 73 1009.9
20260506061405 67 234 2.6 7.8 0.00 0.00 0.00 73 1009.8
20260506060405 67 190 2.6 8.7 0.00 0.00 0.00 72 1009.9
20260506051408 68 183 0.9 5.2 0.00 0.00 0.00 70 1010.3
20260506050905 68 194 1.7 7.0 0.00 0.00 0.00 70 1010.4
20260506050405 68 176 2.6 6.1 0.00 0.00 0.00 69 1010.4
20260506044905 68 177 3.5 7.8 0.00 0.00 0.00 68 1010.6
20260506044406 68 236 2.6 6.1 0.00 0.00 0.00 68 1010.6
20260506043905 68 235 1.7 5.2 0.00 0.00 0.00 68 1010.6
20260506043405 68 170 2.6 7.0 0.00 0.00 0.00 67 1010.6
20260506042907 68 181 2.6 7.0 0.00 0.00 0.00 67 1010.6
20260506041905 68 172 0.9 6.1 0.00 0.00 0.00 66 1010.5
20260506041405 69 167 2.6 7.8 0.00 0.00 0.00 66 1010.5
20260506040904 69 174 1.7 6.1 0.00 0.00 0.00 65 1010.5
20260506040405 69 184 1.7 7.0 0.00 0.00 0.00 65 1010.5
20260506035905 69 180 2.6 7.0 0.00 0.00 0.00 64 1010.4
20260506035405 69 172 1.7 7.8 0.00 0.00 0.00 64 1010.4
20260506034905 69 181 2.6 8.7 0.00 0.00 0.00 64 1010.3
20260506034405 69 174 2.6 8.7 0.00 0.00 0.00 63 1010.3
20260506033904 69 198 1.7 7.0 0.00 0.00 0.00 63 1010.3
20260506033405 70 200 3.5 8.7 0.00 0.00 0.00 62 1010.3
20260506032905 70 151 2.6 7.8 0.00 0.00 0.00 63 1010.2
20260506032406 70 168 1.7 6.1 0.00 0.00 0.00 62 1010.3
20260506031905 70 177 2.6 10.4 0.00 0.00 0.00 62 1010.3
20260506031405 70 195 3.5 7.8 0.00 0.00 0.00 62 1010.3
20260506030905 70 188 3.5 11.3 0.00 0.00 0.00 62 1010.2
20260506030405 70 189 2.6 10.4 0.00 0.00 0.00 62 1010.4
20260506025905 70 188 4.3 7.8 0.00 0.00 0.00 61 1010.4
20260506025405 70 192 2.6 7.8 0.00 0.00 0.00 62 1010.4
20260506024905 70 202 2.6 7.0 0.00 0.00 0.00 61 1010.4
20260506024405 70 177 2.6 7.0 0.00 0.00 0.00 62 1010.5
20260506022905 70 170 1.7 7.0 0.00 0.00 0.00 61 1010.5
20260506022405 70 186 3.5 7.0 0.00 0.00 0.00 61 1010.4
20260506021405 70 204 2.6 7.0 0.00 0.00 0.00 61 1010.4
20260506020905 71 174 0.9 8.7 0.00 0.00 0.00 60 1010.5
20260506020406 71 182 1.7 8.7 0.00 0.00 0.00 60 1010.4
20260506015905 71 167 3.5 7.0 0.00 0.00 0.00 59 1010.4
20260506015405 71 191 4.3 8.7 0.00 0.00 0.00 58 1010.5
20260506014905 72 187 2.6 6.1 0.00 0.00 0.00 58 1010.4
20260506014404 72 207 3.5 7.0 0.00 0.00 0.00 56 1010.3
20260506013904 72 175 3.5 7.0 0.00 0.00 0.00 55 1010.3
20260506013405 73 187 1.7 6.1 0.00 0.00 0.00 54 1010.2
20260506012904 73 188 2.6 6.1 0.00 0.00 0.00 53 1010.1
20260506012406 73 179 2.6 6.1 0.00 0.00 0.00 52 1010.1
20260506011905 74 169 3.5 8.7 0.00 0.00 0.00 51 1010.0
20260506011406 74 175 1.7 7.0 0.00 0.00 0.00 50 1010.0
20260506010905 74 174 2.6 7.0 0.00 0.00 0.00 49 1009.9
20260506010404 75 178 2.6 7.8 0.00 0.00 0.00 48 1009.8
20260506005905 75 175 2.6 7.8 0.00 0.00 0.00 48 1009.8
20260506005406 75 184 3.5 10.4 0.00 0.00 0.00 46 1009.8
20260506004905 76 183 4.3 10.4 0.00 0.00 0.00 46 1009.7
20260506004404 76 179 0.9 5.2 0.00 0.00 0.00 46 1009.7
20260506003905 76 199 1.7 7.0 0.00 0.00 0.00 45 1009.6
20260506002405 76 179 2.6 8.7 0.00 0.00 0.00 44 1009.4
20260506001905 76 201 4.3 8.7 0.00 0.00 0.00 44 1009.4
20260506001406 76 197 4.3 10.4 0.00 0.00 0.00 44 1009.3
20260506000904 77 187 4.3 7.8 0.00 0.00 0.00 44 1009.3
20260506000404 77 202 2.6 10.4 0.00 0.00 0.00 44 1009.3
20260505235406 77 219 4.3 10.4 0.00 0.00 0.00 45 1009.1
20260505234904 77 208 1.7 7.0 0.00 0.00 0.00 45 1009.1
20260505234405 77 190 4.3 10.4 0.00 0.00 0.00 45 1009.1
20260505233905 77 183 3.5 8.7 0.00 0.00 0.00 45 1009.1
20260505233405 77 212 2.6 10.4 0.00 0.00 0.00 45 1009.1
20260505232904 77 210 1.7 10.4 0.00 0.00 0.00 45 1009.1
20260505232406 78 214 4.3 7.8 0.00 0.00 0.00 44 1009.0
20260505231904 78 205 3.5 10.4 0.00 0.00 0.00 44 1008.9
20260505231404 78 216 4.3 11.3 0.00 0.00 0.00 44 1008.9
20260505230904 78 186 3.5 7.8 0.00 0.00 0.00 44 1008.9
20260505230406 79 226 4.3 10.4 0.00 0.00 0.00 43 1008.8
20260505225906 79 225 1.7 8.7 0.00 0.00 0.00 43 1008.9
20260505225406 79 273 4.3 7.8 0.00 0.00 0.00 42 1008.8
20260505224904 80 203 4.3 13.0 0.00 0.00 0.00 40 1008.8
20260505224405 80 217 3.5 10.4 0.00 0.00 0.00 39 1008.7
20260505223904 80 215 4.3 12.2 0.00 0.00 0.00 39 1008.7
20260505223404 81 221 4.3 8.7 0.00 0.00 0.00 39 1008.6
20260505222904 81 184 5.2 7.8 0.00 0.00 0.00 38 1008.5
20260505222404 81 181 3.5 10.4 0.00 0.00 0.00 38 1008.4
20260505221906 81 209 3.5 7.8 0.00 0.00 0.00 38 1008.5
20260505221404 81 220 2.6 7.0 0.00 0.00 0.00 38 1008.5
20260505220905 81 199 2.6 7.8 0.00 0.00 0.00 38 1008.4
20260505220404 81 180 3.5 8.7 0.00 0.00 0.00 38 1008.5
20260505215905 81 201 4.3 11.3 0.00 0.00 0.00 37 1008.6
20260505215405 81 224 3.5 8.7 0.00 0.00 0.00 37 1008.4
20260505214907 82 218 3.5 8.7 0.00 0.00 0.00 36 1008.4
20260505214405 81 171 3.5 7.8 0.00 0.00 0.00 36 1008.3
20260505213405 81 214 4.3 8.7 0.00 0.00 0.00 36 1008.5
20260505212905 81 193 4.3 11.3 0.00 0.00 0.00 36 1008.4
20260505212404 81 222 4.3 10.4 0.00 0.00 0.00 36 1008.3
20260505211904 82 212 4.3 7.8 0.00 0.00 0.00 36 1008.4
20260505211405 82 180 4.3 11.3 0.00 0.00 0.00 35 1008.5
20260505210904 82 248 3.5 8.7 0.00 0.00 0.00 35 1008.4
20260505210404 82 212 4.3 8.7 0.00 0.00 0.00 35 1008.3
20260505205904 82 194 3.5 13.0 0.00 0.00 0.00 34 1008.4
20260505205404 82 208 2.6 7.0 0.00 0.00 0.00 35 1008.3
20260505204905 82 222 3.5 11.3 0.00 0.00 0.00 34 1008.3
20260505204405 82 226 4.3 11.3 0.00 0.00 0.00 34 1008.3
20260505203905 82 262 2.6 7.8 0.00 0.00 0.00 34 1008.2
20260505203404 82 228 4.3 10.4 0.00 0.00 0.00 34 1008.2
20260505202904 82 183 4.3 7.8 0.00 0.00 0.00 35 1008.1
20260505202404 82 234 3.5 7.8 0.00 0.00 0.00 35 1008.2
20260505201904 82 211 4.3 8.7 0.00 0.00 0.00 36 1008.3